126  
ASUS43 KGLD 201508  
RWRGLD  
 
GOODLAND FORECAST AREA HOURLY WEATHER ROUNDUP  
NATIONAL WEATHER SERVICE GOODLAND KS  
800 AM MST WED FEB 20 2019  
   
..OFFICIAL OBSERVATIONS
 
 
 
CITY SKY/WX TMP DP RH WIND PRES REMARKS
 
GOODLAND KS SUNNY N/A N/A N/A W14 29.68R  
HILL CITY KS SUNNY 13 10 88 W9 29.73R FOG  
IMPERIAL NEB SUNNY 4 -2 76 W10 29.64R WCI -11  
MCCOOK NEB MOSUNNY 11 9 92 W10 29.68R FOG WCI -3  
AKRON CO SUNNY 9 6 88 W13 29.60R WCI -7  
BURLINGTON CO SUNNY 7 3 84 W12 29.67R WCI -8  
LIMON CO SUNNY -2 -6 83 NW3 29.63R  

 
   
..UNOFFICIAL OBSERVATIONS
 
 
 
CITY SKY/WX TMP DP RH WIND PRES REMARKS
 
COLBY KS SUNNY 9 7 92 W12 29.70R WCI -6  
SHARON SPRINGS N/A 9 3 75 W7 N/A  
KIT CARSON CO N/A -5 -9 81 CALM N/A  
YUMA CO FAIR 12 9 85 W15 29.64 WCI -4  

 
 
 
CLICK HERE TO GO TO PREVIOUS BULLETINS.

The Nexlab KS Page
The Nexlab CO Page
The Nexlab NE Page Main Text Page